Wind_Speed
11 9 7 7 7 7 9 10 10 10 10 11 13 12 11 9 7 6 6 7 11 11 9 7 7 8 5 8 2 3 4 5 9 13 15 19 22 22 28 33 36 39 42 45 45
13 11 9 10 8 8 8 9 9 11 11 12 13 13 12 10 9 7 8 9 11 12 11 9 8 9 7 10 6 4 3 6 9 14 17 20 22 26 31 35 37 40 42 43 39
14 12 11 12 12 8 8 8 10 12 12 13 14 14 12 12 11 10 11 12 13 12 11 9 9 10 9 11 12 6 3 7 9 14 17 20 24 29 34 39 41 43 43 37 32
16 14 12 13 13 10 9 9 10 12 13 13 15 15 15 14 14 13 13 14 13 11 11 10 10 11 10 13 13 10 4 7 10 14 18 21 26 31 37 42 45 46 40 32 32
16 15 14 13 11 12 9 8 7 11 14 14 15 16 17 15 16 15 15 14 13 12 12 11 10 10 10 13 16 12 6 7 11 15 19 23 28 34 40 45 49 46 35 29 33
21 18 17 13 12 12 9 9 9 10 14 15 15 16 16 16 16 15 14 12 11 11 12 13 11 11 10 12 15 12 8 8 12 16 20 25 31 36 42 49 54 45 27 27 29
22 20 18 15 15 12 10 10 10 9 13 15 16 15 17 15 15 14 13 11 11 10 11 12 11 12 11 11 13 14 9 9 12 17 20 24 30 36 45 50 53 33 23 27 29
25 22 19 17 16 13 15 14 9 11 14 15 17 17 16 16 15 14 14 11 11 10 12 13 12 13 13 12 14 13 10 10 12 16 20 24 31 37 45 50 46 24 25 27 30
27 23 21 18 17 15 16 15 11 14 19 16 17 18 17 16 16 15 14 13 13 12 13 14 13 14 14 11 12 12 8 11 15 16 21 24 30 36 44 50 36 25 26 28 30
31 26 21 18 21 23 20 21 18 20 21 16 16 17 18 17 18 17 16 15 15 15 16 15 14 14 14 11 10 9 12 15 16 17 20 25 29 37 42 47 34 24 27 27 30
32 28 25 26 25 27 24 22 19 20 20 18 16 17 18 18 19 17 18 19 18 18 17 16 15 14 15 10 11 11 14 17 17 17 20 25 29 35 41 46 38 22 24 26 27
35 30 29 29 27 27 27 26 22 20 23 19 17 16 17 18 19 17 19 21 20 19 18 17 16 15 13 11 9 15 15 16 17 17 17 23 27 33 39 43 42 26 23 24 26
38 33 31 33 30 29 30 29 27 26 25 20 18 17 16 16 17 17 17 20 21 20 19 18 16 15 13 11 8 14 16 16 15 17 18 19 23 31 35 40 40 32 21 24 28
43 37 35 35 36 31 30 31 31 30 27 21 18 18 17 17 16 19 20 20 21 20 19 19 17 17 15 14 9 12 16 17 16 17 18 18 24 28 33 38 39 38 27 22 26
44 40 38 37 37 34 35 34 33 34 31 25 17 18 19 18 20 23 22 20 21 21 20 19 17 17 16 15 10 11 15 16 18 17 18 17 20 27 30 35 39 39 38 29 26
48 43 41 39 38 39 39 38 37 36 34 29 27 25 23 22 21 22 25 19 21 21 20 19 18 16 17 17 13 12 13 15 17 18 17 16 19 23 30 31 35 38 39 38 31
48 48 45 44 41 41 42 42 41 39 32 32 31 27 24 23 20 21 25 20 20 21 21 20 18 16 17 17 18 13 12 12 16 16 17 17 17 22 28 29 31 35 38 40 40
50 46 46 43 42 43 47 46 46 39 35 34 32 30 27 24 22 22 24 25 21 21 21 19 18 18 17 17 17 15 12 11 15 17 18 19 17 20 25 27 31 32 35 37 41
54 53 56 56 54 54 49 53 47 45 38 37 32 33 28 26 23 24 24 24 26 22 23 21 19 18 19 19 18 17 17 11 12 16 17 18 19 17 20 25 28 32 34 36 38
58 57 55 52 48 50 53 52 49 44 41 38 38 37 31 31 28 28 24 24 27 28 23 23 21 20 20 20 20 19 17 13 12 15 16 17 20 16 18 21 26 29 32 35 37
64 61 56 54 53 55 53 51 48 46 45 42 38 37 33 28 30 31 29 26 26 28 32 28 24 21 21 21 20 19 17 14 13 15 17 18 18 18 16 16 22 26 30 34 37
66 58 57 56 57 55 50 48 49 44 45 48 40 36 34 28 25 32 29 29 25 25 28 32 30 23 21 20 20 19 17 16 12 12 16 17 17 19 17 15 18 21 25 30 34
57 58 57 58 59 57 53 50 46 47 45 45 42 39 36 33 28 31 29 30 26 25 25 28 30 30 25 23 21 21 20 18 14 12 15 17 16 17 20 19 17 17 19 24 30
57 61 60 60 58 58 55 50 47 46 42 41 37 38 36 34 28 29 30 32 30 25 26 28 26 29 28 25 22 22 21 20 17 13 15 18 17 17 19 20 20 20 18 18 21
58 60 55 56 53 56 57 50 46 46 44 45 45 44 38 38 34 30 33 33 35 30 28 28 26 26 28 27 23 23 22 22 18 18 14 17 19 17 19 20 21 20 19 16 14
58 59 54 51 56 57 56 58 49 45 44 44 42 42 42 43 36 33 33 36 37 35 32 30 25 27 27 28 27 23 22 22 20 19 15 18 20 20 21 22 22 21 19 16 16
60 59 56 54 54 54 54 52 48 48 46 45 40 36 46 45 40 39 38 34 36 38 37 34 29 29 26 27 29 25 20 23 21 20 19 14 20 20 23 22 23 23 21 17 15
Wind_Direction
259 264 254 254 231 231 228 232 240 254 263 249 244 246 245 236 229 230 260 295 302 292 295 291 277 290 255 210 226 272 349 12 348 327 333 323 319 320 321 319 316 310 310 306 295
262 260 261 258 245 241 246 250 249 257 255 251 246 243 244 235 233 240 266 291 306 295 299 294 282 299 271 241 249 267 309 359 337 320 321 322 322 322 320 322 320 316 311 304 290
256 256 263 261 267 250 257 262 263 258 255 252 249 246 239 243 245 255 274 287 299 286 293 297 289 300 278 263 269 272 317 360 328 319 323 325 327 326 322 323 324 319 309 298 283
252 256 259 267 269 271 267 270 264 263 259 255 250 249 246 248 255 267 275 287 292 283 289 287 294 301 288 274 276 274 332 312 320 315 321 324 325 325 324 328 327 321 308 295 293
249 259 258 267 274 279 270 278 268 270 260 255 252 253 253 254 259 267 275 284 291 282 288 288 305 304 293 284 279 280 296 331 311 314 328 329 323 325 327 331 329 323 313 301 305
250 246 256 263 271 270 273 288 305 296 266 256 249 251 255 256 262 266 272 282 285 282 288 287 311 313 295 285 290 286 296 338 313 315 331 331 329 330 332 337 333 327 318 312 315
249 246 253 255 265 266 260 277 296 306 289 264 257 251 255 258 262 264 270 280 273 284 284 288 306 312 305 294 300 294 307 304 322 321 329 330 335 334 339 341 336 334 329 324 322
243 245 243 255 261 262 267 271 283 311 304 277 265 258 257 260 263 267 274 271 270 283 285 287 302 307 306 293 295 302 285 301 312 327 332 336 337 340 344 344 342 353 343 337 333
243 238 245 253 264 267 264 259 280 301 299 282 268 262 260 260 263 267 270 267 272 278 281 288 298 305 299 287 303 298 280 312 316 324 335 340 343 346 348 347 351 358 352 352 349
240 240 243 252 269 263 257 267 279 293 292 279 267 264 260 262 263 264 267 267 269 274 275 287 297 303 294 286 301 288 297 313 318 335 340 343 344 350 351 351 356 358 354 360 3
237 236 242 253 250 261 259 263 277 289 292 280 273 266 262 259 260 262 270 268 267 269 274 282 293 296 292 285 299 289 303 313 319 334 344 342 349 351 354 354 358 355 351 1 9
235 236 246 249 244 251 257 265 273 283 286 292 279 272 266 258 255 258 270 267 265 265 268 275 286 292 285 284 299 301 299 310 324 334 346 345 350 353 357 357 357 351 345 353 358
230 235 241 246 242 246 254 260 267 272 276 286 278 275 273 262 252 258 271 268 263 261 263 269 279 286 278 271 289 303 305 306 320 330 339 347 356 353 360 2 3 353 343 348 352
232 233 237 247 246 243 248 257 268 268 272 276 280 279 276 266 257 261 267 268 261 259 260 265 275 280 272 266 276 296 307 309 319 325 332 343 349 352 1 4 7 2 350 342 345
233 238 235 240 244 245 251 264 263 269 264 270 274 284 279 278 273 268 264 267 261 260 259 262 270 277 268 264 263 287 305 305 315 319 321 330 351 351 359 5 5 10 7 348 339
236 233 233 233 242 251 255 261 259 258 255 266 270 282 284 281 282 268 268 266 262 259 258 262 270 274 269 269 264 270 287 296 306 308 314 330 342 351 359 3 5 9 14 14 4
234 234 236 238 239 244 251 255 259 253 256 265 269 271 280 276 279 271 277 256 266 259 259 262 269 273 270 271 272 270 271 291 298 296 307 325 337 345 353 1 4 7 10 13 15
233 236 237 236 237 239 248 252 253 256 262 270 268 267 273 271 271 274 278 269 257 263 259 263 267 273 274 271 277 273 275 282 289 298 306 317 323 340 348 359 2 7 10 10 13
234 236 240 244 245 245 245 250 253 260 260 265 265 264 270 266 269 276 274 272 256 256 263 264 267 273 276 270 271 273 273 277 293 294 301 309 317 325 340 354 1 4 8 11 9
234 235 236 241 242 246 248 249 251 259 261 262 260 259 270 263 267 258 266 270 266 252 256 263 268 271 276 277 271 273 270 267 282 295 297 307 308 319 334 347 356 1 6 10 12
240 236 235 237 241 241 244 250 252 258 261 259 260 260 263 266 262 257 254 264 265 268 258 255 264 267 272 276 274 274 269 261 263 287 296 300 309 319 321 339 350 357 3 9 13
241 237 236 235 239 245 249 254 257 259 255 255 257 258 251 257 261 261 259 256 259 262 266 261 256 260 262 274 273 270 266 257 261 279 292 305 311 314 320 329 341 352 358 4 12
236 235 237 237 241 245 247 253 256 256 257 254 247 250 246 254 266 261 259 253 254 258 263 263 266 261 256 260 266 267 263 259 252 264 285 301 312 316 317 325 333 344 353 359 7
234 238 235 237 241 243 242 245 251 251 253 248 247 244 246 252 251 253 256 248 252 257 261 261 264 266 260 260 258 264 264 261 258 257 270 292 298 314 321 327 329 335 341 354 1
230 234 237 243 242 246 244 244 244 247 248 248 247 246 244 250 250 249 254 251 248 250 255 259 259 262 262 258 251 258 261 263 262 253 260 277 291 300 316 323 332 336 347 347 356
235 232 237 243 241 244 243 240 243 240 246 250 255 248 248 251 249 238 244 248 248 248 252 256 256 256 258 263 255 249 259 258 258 257 241 261 280 290 301 310 325 333 341 346 354
240 240 241 236 239 239 239 241 245 241 238 242 244 238 246 246 246 240 242 246 249 249 249 253 257 256 258 261 262 248 250 258 253 257 253 253 265 280 289 300 312 325 330 336 345
Height
5837 5837 5835 5838 5836 5836 5835 5836 5836 5836 5838 5838 5837 5838 5838 5837 5838 5838 5839 5839 5838 5838 5836 5834 5834 5834 5832 5830 5828 5825 5823 5820 5817 5813 5810 5806 5801 5797 5791 5784 5779 5771 5762 5754 5745
5835 5834 5833 5835 5834 5835 5835 5836 5835 5834 5834 5836 5835 5835 5836 5835 5836 5836 5837 5837 5836 5836 5835 5833 5832 5832 5830 5828 5826 5824 5821 5818 5814 5811 5807 5802 5797 5792 5786 5779 5770 5762 5754 5745 5737
5832 5832 5832 5831 5834 5831 5832 5833 5834 5833 5831 5833 5833 5833 5833 5834 5834 5834 5835 5835 5834 5833 5833 5831 5830 5830 5828 5826 5825 5822 5819 5815 5812 5808 5803 5797 5792 5786 5779 5770 5761 5750 5742 5735 5730
5829 5828 5828 5830 5830 5830 5829 5830 5831 5831 5830 5830 5830 5831 5831 5832 5834 5833 5832 5833 5832 5831 5830 5829 5828 5827 5826 5824 5822 5821 5817 5813 5809 5805 5799 5793 5788 5780 5772 5763 5752 5741 5733 5727 5722
5825 5827 5827 5827 5828 5829 5828 5828 5827 5828 5828 5827 5827 5829 5829 5830 5830 5830 5830 5830 5830 5829 5828 5827 5825 5823 5822 5821 5820 5818 5815 5811 5806 5801 5795 5789 5782 5775 5767 5757 5744 5732 5724 5719 5714
5823 5821 5823 5823 5824 5826 5825 5826 5826 5826 5826 5825 5824 5825 5827 5827 5827 5826 5827 5827 5827 5826 5825 5825 5823 5821 5819 5819 5817 5815 5813 5808 5802 5797 5791 5785 5778 5770 5761 5749 5736 5724 5717 5714 5708
5817 5818 5820 5818 5821 5821 5821 5822 5822 5822 5823 5822 5822 5821 5824 5824 5823 5823 5824 5823 5824 5823 5823 5822 5820 5818 5817 5816 5814 5812 5810 5804 5799 5794 5789 5782 5776 5767 5757 5744 5731 5720 5714 5709 5703
5813 5814 5813 5815 5817 5818 5818 5819 5818 5820 5820 5819 5819 5820 5820 5820 5820 5821 5821 5820 5820 5820 5820 5819 5817 5816 5814 5813 5810 5808 5807 5802 5797 5791 5785 5780 5771 5764 5754 5741 5727 5718 5713 5707 5700
5808 5808 5809 5812 5813 5813 5816 5816 5815 5816 5816 5816 5816 5817 5817 5816 5817 5817 5818 5818 5817 5817 5817 5816 5814 5813 5811 5810 5808 5805 5804 5799 5795 5789 5783 5777 5770 5762 5750 5739 5724 5718 5712 5705 5698
5803 5804 5803 5805 5809 5811 5812 5812 5812 5813 5813 5813 5812 5814 5813 5813 5813 5813 5814 5814 5814 5814 5814 5814 5811 5810 5808 5807 5805 5803 5801 5797 5793 5788 5781 5774 5767 5758 5749 5737 5723 5718 5711 5704 5697
5796 5798 5798 5800 5803 5805 5807 5808 5811 5811 5810 5809 5809 5808 5808 5808 5809 5809 5810 5811 5811 5810 5810 5810 5809 5808 5805 5804 5801 5801 5798 5795 5791 5786 5779 5773 5765 5757 5747 5736 5725 5717 5712 5705 5698
5789 5791 5794 5795 5797 5799 5801 5803 5805 5807 5807 5805 5805 5804 5803 5803 5804 5805 5806 5807 5807 5806 5806 5807 5805 5804 5803 5801 5799 5799 5796 5794 5790 5784 5779 5772 5765 5757 5747 5737 5726 5716 5712 5706 5699
5781 5784 5788 5790 5790 5793 5795 5797 5799 5800 5802 5801 5801 5801 5800 5801 5800 5800 5801 5801 5802 5802 5802 5802 5802 5801 5800 5798 5795 5795 5794 5791 5789 5783 5778 5771 5765 5757 5749 5739 5728 5718 5711 5705 5699
5772 5775 5779 5783 5786 5786 5789 5790 5792 5794 5796 5798 5797 5798 5797 5797 5797 5797 5796 5797 5797 5798 5798 5798 5798 5797 5797 5795 5792 5792 5791 5788 5786 5782 5777 5771 5765 5758 5749 5740 5730 5720 5710 5704 5697
5763 5768 5770 5774 5779 5780 5783 5784 5786 5788 5789 5792 5793 5793 5793 5794 5793 5793 5792 5792 5793 5793 5795 5795 5794 5794 5793 5792 5790 5789 5787 5786 5783 5780 5776 5771 5765 5758 5750 5740 5732 5722 5712 5704 5697
5756 5758 5763 5765 5770 5773 5774 5776 5779 5781 5782 5786 5788 5788 5789 5788 5788 5788 5788 5789 5789 5789 5790 5790 5790 5790 5789 5789 5787 5785 5784 5783 5781 5778 5775 5770 5765 5760 5751 5743 5735 5726 5715 5707 5700
5746 5750 5754 5757 5760 5764 5766 5768 5770 5770 5778 5779 5782 5783 5783 5783 5784 5784 5783 5784 5785 5785 5786 5786 5786 5786 5785 5785 5784 5783 5781 5779 5779 5777 5774 5769 5764 5759 5753 5745 5737 5729 5720 5711 5702
5734 5740 5745 5747 5751 5754 5757 5759 5760 5764 5770 5773 5775 5777 5777 5778 5779 5779 5779 5779 5780 5780 5781 5782 5783 5781 5781 5781 5781 5780 5779 5776 5775 5774 5772 5768 5763 5760 5753 5747 5740 5732 5724 5715 5706
5723 5728 5734 5738 5742 5744 5747 5748 5753 5757 5763 5765 5769 5770 5771 5772 5774 5773 5774 5774 5774 5775 5777 5777 5778 5777 5777 5776 5777 5776 5776 5774 5772 5771 5769 5767 5763 5760 5754 5748 5742 5735 5727 5719 5710
5710 5715 5721 5725 5728 5732 5735 5741 5743 5750 5754 5757 5760 5763 5765 5765 5766 5766 5768 5769 5768 5769 5771 5772 5773 5773 5772 5772 5773 5772 5772 5771 5768 5768 5766 5765 5761 5758 5754 5749 5743 5737 5731 5723 5715
5695 5700 5708 5712 5716 5720 5725 5732 5738 5742 5746 5749 5751 5754 5758 5758 5759 5758 5761 5762 5763 5763 5764 5766 5768 5770 5769 5768 5767 5768 5767 5767 5766 5765 5763 5762 5761 5758 5755 5750 5745 5739 5733 5726 5719
5684 5690 5696 5700 5705 5710 5717 5724 5730 5732 5735 5738 5742 5745 5748 5750 5752 5751 5754 5755 5757 5757 5758 5759 5761 5763 5764 5764 5763 5763 5763 5764 5762 5762 5761 5760 5760 5756 5754 5750 5746 5740 5735 5730 5723
5671 5677 5683 5687 5692 5699 5707 5713 5717 5722 5725 5728 5732 5736 5739 5742 5745 5744 5746 5749 5750 5751 5752 5753 5753 5756 5757 5759 5759 5758 5759 5759 5758 5758 5757 5756 5756 5754 5752 5750 5746 5742 5738 5733 5727
5658 5661 5669 5674 5681 5688 5694 5701 5706 5711 5715 5717 5722 5726 5729 5732 5737 5738 5739 5741 5743 5744 5745 5746 5748 5749 5751 5752 5753 5753 5753 5754 5754 5753 5753 5753 5753 5751 5750 5748 5746 5743 5740 5736 5731
5642 5649 5658 5664 5672 5678 5684 5691 5696 5700 5705 5709 5712 5717 5720 5723 5727 5731 5731 5733 5735 5737 5738 5739 5742 5742 5743 5745 5746 5747 5748 5748 5749 5748 5749 5749 5749 5749 5747 5746 5745 5743 5740 5738 5734
5627 5637 5646 5654 5659 5664 5668 5676 5685 5691 5695 5699 5703 5708 5710 5713 5719 5721 5723 5724 5725 5729 5730 5732 5735 5735 5737 5738 5739 5741 5742 5742 5743 5744 5744 5743 5744 5744 5744 5743 5743 5741 5739 5737 5734
5613 5626 5631 5639 5644 5650 5658 5666 5674 5679 5683 5688 5693 5697 5699 5705 5708 5711 5714 5717 5718 5720 5722 5724 5727 5728 5730 5731 5731 5736 5737 5736 5737 5738 5739 5740 5739 5740 5740 5740 5740 5739 5737 5735 5733